Weather in Elbrus

Russia / The Kabardino-Balkar Republic     43˚15′13″N   42˚38′23″E
temp.,
°C
wind,
m/s
gust,
m/s
humid.,
%
clouds,
%
prec.,
mm/h
press.,
hPa
HPBL,
m
28 november, sat
sat2800:00−11˚ssw23370 0.0 102921
03:00−11˚ssw12320 0.0 102821
06:00−11˚ssw13290 0.0 102721
09:00−8˚ssw23440 0.0 102624
12:00−3˚ssw33600 0.0 1024119
15:00−5˚ssw22580 0.0 102323
18:00−11˚ssw23330 0.0 102522
21:00−11˚ssw22240 0.0 102521
29 november, sun
sun2900:00−11˚ssw232124 0.0 102521
03:00−12˚sw122013 0.0 102521
06:00−12˚sw12170 0.0 102521
09:00−8˚sse02310 0.0 102521
12:00−3˚sse11470 0.0 102391
15:00−6˚ne11620 0.0 102321
18:00−12˚e12420 0.0 102421
21:00−11˚ese02320 0.0 102421
30 november, mon
mon3000:00−11˚sse02350 0.0 102421
03:00−11˚nne12380 0.0 102321
06:00−12˚ne12350 0.0 102221
09:00−8˚ene124632 0.0 102222
12:00−4˚e115415 0.0 1020118
15:00−6˚ssw12747 0.0 101921
18:00−11˚sw12490 0.0 102021
21:00−11˚sw22380 0.0 102021
1 december, tue
tue100:00−12˚sw23440 0.0 102122
03:00−12˚sw23490 0.0 102022
06:00−13˚sw23459 0.0 102121
09:00−10˚sw12525 0.0 102121
12:00−6˚ssw226440 0.0 1020190
15:00−8˚ssw228340 0.0 102027
18:00−13˚sw228621 0.0 102322
21:00−13˚sw237310 0.0 102422
2 december, wed
wed200:00−13˚sw12650 0.0 102421
03:00−13˚wsw12610 0.0 102421
06:00−14˚w12570 0.0 102421
09:00−10˚wsw12580 0.0 102421
12:00−5˚wsw11590 0.0 1023229
15:00−8˚ssw11820 0.0 102322
18:00−13˚wsw12740 0.0 102421
21:00−13˚w12560 0.0 102521